Date String (YYYY-MM-DD hh:mm:ss) UTC,Instrument flags,Ambient pressure (hPa),Sample flow (lpm),Bypass flow (lpm),Sample temperature (°C),Ambient temperature (°C),ASC tube jacket temperature (°C),LED temperature (°C),Box temperature (°C),Sample RH (%),Span deviation,Mass concentration (μg/m³),Mass concentration (μg/m³),Mass concentration (μg/m³)
DateTimeUTC,F1_M11,P_M11,Q1_M11,Q2_M11,T1_M11,T2_M11,T3_M11,T4_M11,T5_M11,U1_M11,ZSPAN_M11,X0_M11,X2_M11,X1_M11
2022-06-22 22:00:00,,0830.8,5.00,0.00,29.1,27.1,00.0,37.7,30.8,16.5,0000.0,0020.17,0005.26,0003.48
2022-06-22 22:01:00,,0830.8,5.00,0.00,29.0,26.9,00.0,37.7,30.7,17.0,0000.0,0020.10,0005.27,0003.50
2022-06-22 22:02:00,,0830.8,5.00,0.00,29.0,26.9,00.0,37.7,30.7,17.6,0000.0,0019.61,0005.30,0003.51
2022-06-22 22:03:00,,0830.8,5.00,0.00,28.9,27.0,00.0,37.7,30.7,17.5,0000.0,0019.01,0005.35,0003.53
2022-06-22 22:04:00,,0830.8,5.01,0.00,28.9,27.1,00.0,37.7,30.8,17.1,0000.0,0018.59,0005.28,0003.54
2022-06-22 22:05:00,,0830.8,5.00,0.00,28.9,27.3,00.0,37.7,30.8,17.4,0000.0,0018.29,0005.27,0003.54
2022-06-22 22:06:00,,0830.8,4.99,0.00,28.9,27.5,00.0,37.7,30.9,17.6,0000.0,0018.79,0005.24,0003.53
2022-06-22 22:07:00,,0830.8,5.01,0.00,29.0,27.7,00.0,37.7,30.9,17.0,0000.0,0019.12,0005.27,0003.54
2022-06-22 22:08:00,,0830.7,4.99,0.00,29.0,27.8,00.0,37.7,31.0,17.2,0000.0,0018.76,0005.26,0003.54
2022-06-22 22:09:00,,0830.7,5.01,0.00,29.0,28.0,00.0,37.7,31.0,17.0,0000.0,0018.86,0005.29,0003.54
2022-06-22 22:10:00,,0830.7,5.01,0.00,29.1,28.1,00.0,37.8,31.1,17.1,0000.0,0019.26,0005.32,0003.54
2022-06-22 22:11:00,,0830.6,5.00,0.00,29.1,28.2,00.0,37.8,31.1,17.2,0000.0,0019.34,0005.35,0003.55
2022-06-22 22:12:00,,0830.6,4.99,0.00,29.1,28.3,00.0,37.8,31.2,17.3,0000.0,0019.56,0005.41,0003.55
2022-06-22 22:13:00,,0830.6,5.01,0.00,29.2,28.2,00.0,37.8,31.1,17.3,0000.0,0019.20,0005.40,0003.56
2022-06-22 22:14:00,,0830.6,5.00,0.00,29.1,27.4,00.0,37.8,31.0,17.5,0000.0,0019.57,0005.39,0003.57
2022-06-22 22:15:00,,0830.6,5.01,0.00,29.0,26.9,00.0,37.7,30.8,18.1,0000.0,0020.19,0005.41,0003.58
2022-06-22 22:16:00,,0830.6,4.99,0.00,29.0,26.9,00.0,37.7,30.8,18.1,0000.0,0021.92,0005.48,0003.59
2022-06-22 22:17:00,,0830.6,5.00,0.00,29.0,26.9,00.0,37.7,30.7,17.3,0000.0,0022.45,0005.50,0003.60
2022-06-22 22:18:00,,0830.6,5.00,0.00,28.9,27.1,00.0,37.7,30.8,17.4,0000.0,0022.08,0005.52,0003.60
2022-06-22 22:19:00,,0830.6,5.01,0.00,28.9,27.3,00.0,37.7,30.8,17.7,0000.0,0022.91,0005.61,0003.61
2022-06-22 22:20:00,,0830.6,5.00,0.00,28.9,27.4,00.0,37.7,30.8,17.9,0000.0,0022.85,0005.59,0003.62
2022-06-22 22:21:00,,0830.5,5.00,0.00,29.0,27.6,00.0,37.7,30.9,18.0,0000.0,0022.73,0005.58,0003.61
2022-06-22 22:22:00,,0830.5,5.00,0.00,29.0,27.8,00.0,37.7,30.9,17.7,0000.0,0021.59,0005.58,0003.60
2022-06-22 22:23:00,,0830.5,5.00,0.00,29.0,27.9,00.0,37.8,31.0,17.7,0000.0,0021.51,0005.51,0003.60
2022-06-22 22:24:00,,0830.5,5.00,0.00,29.0,28.0,00.0,37.8,31.0,17.9,0000.0,0020.94,0005.44,0003.58
2022-06-22 22:25:00,,0830.5,4.99,0.00,29.1,28.2,00.0,37.8,31.1,17.3,0000.0,0020.79,0005.44,0003.58
2022-06-22 22:26:00,,0830.5,5.01,0.00,29.1,28.3,00.0,37.8,31.2,17.5,0000.0,0019.77,0005.40,0003.58
2022-06-22 22:27:00,,0830.5,5.00,0.00,29.2,28.3,00.0,37.8,31.2,17.5,0000.0,0019.36,0005.40,0003.59
2022-06-22 22:28:00,,0830.5,5.00,0.00,29.2,27.8,00.0,37.8,31.1,17.5,0000.0,0020.49,0005.42,0003.61
2022-06-22 22:29:00,,0830.4,5.00,0.00,29.1,27.1,00.0,37.7,30.9,17.6,0000.0,0020.85,0005.42,0003.61
2022-06-22 22:30:00,,0830.4,5.00,0.00,29.0,26.9,00.0,37.7,30.8,17.9,0000.0,0020.32,0005.36,0003.63
2022-06-22 22:31:00,,0830.3,5.00,0.00,29.0,26.9,00.0,37.7,30.8,18.6,0000.0,0020.95,0005.35,0003.63
2022-06-22 22:32:00,,0830.4,5.00,0.00,29.0,27.1,00.0,37.7,30.8,18.7,0000.0,0021.00,0005.39,0003.65
2022-06-22 22:33:00,,0830.4,5.00,0.00,28.9,27.2,00.0,37.7,30.8,18.4,0000.0,0021.89,0005.44,0003.67
2022-06-22 22:34:00,,0830.5,5.00,0.00,29.0,27.4,00.0,37.7,30.9,17.6,0000.0,0022.13,0005.51,0003.69
2022-06-22 22:35:00,,0830.4,4.98,0.00,29.0,27.6,00.0,37.7,30.9,17.5,0000.0,0023.39,0005.59,0003.71
2022-06-22 22:36:00,,0830.3,5.01,0.00,29.0,27.7,00.0,37.8,30.9,17.4,0000.0,0024.54,0005.63,0003.72
2022-06-22 22:37:00,,0830.3,5.01,0.00,29.0,27.9,00.0,37.8,31.0,17.6,0000.0,0025.75,0005.63,0003.73
2022-06-22 22:38:00,,0830.2,5.00,0.00,29.1,28.0,00.0,37.8,31.0,17.4,0000.0,0025.64,0005.63,0003.73
2022-06-22 22:39:00,,0830.2,5.00,0.00,29.1,28.1,00.0,37.8,31.1,17.7,0000.0,0023.06,0005.63,0003.72
2022-06-22 22:40:00,,0830.2,5.01,0.00,29.1,28.3,00.0,37.8,31.1,17.8,0000.0,0022.06,0005.66,0003.71
2022-06-22 22:41:00,,0830.2,4.99,0.00,29.2,28.3,00.0,37.8,31.2,17.8,0000.0,0022.33,0005.71,0003.72
2022-06-22 22:42:00,,0830.2,5.00,0.00,29.1,27.7,00.0,37.8,31.0,17.7,0000.0,0023.29,0005.73,0003.72
2022-06-22 22:43:00,,0830.1,5.01,0.00,29.1,27.0,00.0,37.7,30.8,17.9,0000.0,0023.19,0005.70,0003.72
2022-06-22 22:44:00,,0830.1,5.00,0.00,29.0,26.9,00.0,37.7,30.8,18.2,0000.0,0022.40,0005.63,0003.71
2022-06-22 22:45:00,,0830.1,5.00,0.00,29.0,26.9,00.0,37.7,30.7,18.2,0000.0,0022.57,0005.65,0003.72
2022-06-22 22:46:00,,0830.1,5.00,0.00,29.0,27.1,00.0,37.7,30.8,18.2,0000.0,0022.96,0005.66,0003.71
2022-06-22 22:47:00,,0830.1,5.00,0.00,29.0,27.2,00.0,37.7,30.8,18.2,0000.0,0022.83,0005.63,0003.71
2022-06-22 22:48:00,,0830.1,5.01,0.00,29.0,27.4,00.0,37.7,30.9,18.1,0000.0,0022.29,0005.60,0003.70
2022-06-22 22:49:00,,0830.1,5.01,0.00,29.0,27.6,00.0,37.7,30.9,17.9,0000.0,0022.25,0005.61,0003.69
2022-06-22 22:50:00,,0830.2,5.00,0.00,29.0,27.8,00.0,37.8,31.0,17.9,0000.0,0022.59,0005.60,0003.69
2022-06-22 22:51:00,,0830.1,5.00,0.00,29.0,27.9,00.0,37.8,31.0,18.1,0000.0,0023.28,0005.58,0003.69
2022-06-22 22:52:00,,0830.0,5.00,0.00,29.1,28.1,00.0,37.8,31.1,18.1,0000.0,0023.86,0005.53,0003.67
2022-06-22 22:53:00,,0830.1,5.01,0.00,29.1,28.2,00.0,37.8,31.1,18.1,0000.0,0023.43,0005.54,0003.67
2022-06-22 22:54:00,,0830.1,4.99,0.00,29.1,28.3,00.0,37.8,31.2,17.8,0000.0,0023.85,0005.57,0003.66
2022-06-22 22:55:00,,0830.1,5.01,0.00,29.2,28.3,00.0,37.8,31.2,17.9,0000.0,0024.88,0005.62,0003.66
2022-06-22 22:56:00,,0830.0,5.00,0.00,29.2,27.6,00.0,37.8,31.0,18.1,0000.0,0024.99,0005.58,0003.65
2022-06-22 22:57:00,,0830.0,5.00,0.00,29.1,27.0,00.0,37.7,30.8,17.8,0000.0,0024.28,0005.57,0003.66
2022-06-22 22:58:00,,0829.9,4.99,0.00,29.0,26.9,00.0,37.7,30.8,17.4,0000.0,0024.00,0005.56,0003.66
2022-06-22 22:59:00,,0830.0,5.00,0.00,29.0,27.0,00.0,37.7,30.8,17.4,0000.0,0023.77,0005.55,0003.67
